Weather History for Chariton, IA

Change the Weather History Date:

Monday, November 19, 2012

  Actual Average Record
Temperature  
Mean Temperature 54 °F -  
Max Temperature 64 °F 49 °F 75 °F (1949)
Min Temperature 44 °F 28 °F 7 °F (1989)
Degree Days  
Heating Degree Days 11    
Growing Degree Days 4 (Base 50)    
Moisture  
Dew Point 42 °F    
Average Humidity 64    
Maximum Humidity 82    
Minimum Humidity 38    
Precipitation  
Precipitation 0.01 in - - ()
Sea Level Pressure  
Sea Level Pressure 30.09 in    
Wind  
Wind Speed 10 mph (South)    
Max Wind Speed 20 mph    
Max Gust Speed 25 mph    
Visibility 10 miles    
Events Rain    
Averages and records for this station are not official NWS values.
T = Trace of Precipitation, MM = Missing Value Source: NWS Daily Summary

Daily Weather History Graph

Daily Weather History Graph

Search for Another Location

Airport:

Trip Planner

Search our weather history database for the weather conditions in past years. The results will help you decide how hot, cold, wet, or windy it might be!

Date:

Astronomy

Nov. 19, 2012 Rise Set
Actual Time 7:06 AM CST 4:51 PM CST
Civil Twilight 6:36 AM CST 5:21 PM CST
Nautical Twilight 6:02 AM CST 5:54 PM CST
Astronomical Twilight 5:30 AM CST 6:27 PM CST
Moon 12:08 PM CST (11/19) 11:20 PM CST (11/19)
Length of Visible Light 10h 44m
Length of Day
9h 45m
Waxing Crescent, 41% of the Moon is Illuminated
Nov 19
Waxing Crescent
Nov 20
First Quarter
Nov 28
Full
Dec 6
Last Quarter
Dec 13
New

Hourly Weather History & Observations

Time (CST) Temp. Windchill Dew Point Humidity Pressure Visibility Wind Dir Wind Speed Gust Speed Precip Events Conditions
12:15 AM 55.4 °F - 30.2 °F 38% 30.18 in 10.0 mi South 12.7 mph - N/A   Overcast
12:35 AM 53.6 °F - 33.8 °F 47% 30.18 in 10.0 mi South 9.2 mph - N/A Rain Light Rain
12:55 AM 51.8 °F - 37.4 °F 58% 30.17 in 10.0 mi SE 8.1 mph - 0.01 in Rain Light Rain
1:15 AM 50.0 °F - 37.4 °F 62% 30.17 in 10.0 mi SSE 9.2 mph - N/A   Mostly Cloudy
1:35 AM 51.8 °F - 37.4 °F 58% 30.17 in 10.0 mi SE 6.9 mph - N/A   Overcast
1:55 AM 50.0 °F - 39.2 °F 66% 30.16 in 10.0 mi SSE 9.2 mph - N/A   Overcast
2:15 AM 51.8 °F - 39.2 °F 62% 30.15 in 10.0 mi SSE 8.1 mph - N/A   Overcast
2:35 AM 51.8 °F - 39.2 °F 62% 30.15 in 10.0 mi SSE 8.1 mph - N/A   Overcast
2:55 AM 51.8 °F - 39.2 °F 62% 30.14 in 10.0 mi SSE 10.4 mph - N/A   Overcast
3:15 AM 51.8 °F - 37.4 °F 58% 30.13 in 10.0 mi SSE 13.8 mph - N/A   Overcast
3:35 AM 51.8 °F - 37.4 °F 58% 30.13 in 10.0 mi SSE 12.7 mph - N/A   Overcast
3:55 AM 51.8 °F - 37.4 °F 58% 30.12 in 10.0 mi SSE 11.5 mph - N/A   Overcast
4:15 AM 51.8 °F - 37.4 °F 58% 30.12 in 10.0 mi SSE 10.4 mph - N/A   Overcast
4:35 AM 51.8 °F - 37.4 °F 58% 30.12 in 10.0 mi SSE 10.4 mph - N/A   Overcast
4:55 AM 51.8 °F - 37.4 °F 58% 30.12 in 10.0 mi SSE 10.4 mph - N/A   Scattered Clouds
5:15 AM 50.0 °F - 37.4 °F 62% 30.13 in 10.0 mi South 8.1 mph - N/A   Clear
5:35 AM 50.0 °F - 37.4 °F 62% 30.12 in 10.0 mi SSE 8.1 mph - N/A   Clear
5:55 AM 48.2 °F - 37.4 °F 66% 30.12 in 10.0 mi SSE 8.1 mph - N/A   Clear
6:15 AM 48.2 °F - 37.4 °F 66% 30.12 in 10.0 mi South 8.1 mph - N/A   Clear
6:35 AM 48.2 °F - 37.4 °F 66% 30.12 in 10.0 mi South 10.4 mph - N/A   Clear
6:55 AM 48.2 °F - 37.4 °F 66% 30.12 in 10.0 mi South 9.2 mph - N/A   Clear
7:35 AM 48.2 °F - 37.4 °F 66% 30.11 in 10.0 mi South 11.5 mph - N/A   Clear
7:55 AM 50.0 °F - 37.4 °F 62% 30.11 in 10.0 mi South 12.7 mph - N/A   Clear
8:15 AM 51.8 °F - 39.2 °F 62% 30.11 in 10.0 mi South 15.0 mph - N/A   Clear
8:35 AM 53.6 °F - 41.0 °F 62% 30.11 in 10.0 mi South 18.4 mph 21.9 mph N/A   Clear
8:55 AM 53.6 °F - 42.8 °F 67% 30.11 in 10.0 mi South 19.6 mph - N/A   Clear
9:15 AM 53.6 °F - 42.8 °F 67% 30.11 in 10.0 mi South 18.4 mph 25.3 mph N/A   Clear
9:35 AM 55.4 °F - 42.8 °F 63% 30.12 in 10.0 mi SSW 16.1 mph - N/A   Clear
9:55 AM 55.4 °F - 44.6 °F 67% 30.11 in 10.0 mi South 18.4 mph 24.2 mph N/A   Clear
10:15 AM 57.2 °F - 44.6 °F 63% 30.12 in 10.0 mi South 16.1 mph 21.9 mph N/A   Clear
10:35 AM 57.2 °F - 44.6 °F 63% 30.11 in 10.0 mi SSW 15.0 mph 23.0 mph N/A   Clear
10:55 AM 57.2 °F - 46.4 °F 67% 30.10 in 10.0 mi South 18.4 mph 23.0 mph N/A   Clear
11:15 AM 59.0 °F - 46.4 °F 63% 30.09 in 10.0 mi SSW 16.1 mph 24.2 mph N/A   Clear
11:35 AM 60.8 °F - 46.4 °F 59% 30.08 in 10.0 mi South 16.1 mph 23.0 mph N/A   Clear
11:55 AM 60.8 °F - 46.4 °F 59% 30.08 in 10.0 mi South 12.7 mph - N/A   Clear
12:15 PM 60.8 °F - 46.4 °F 59% 30.08 in 10.0 mi SSW 12.7 mph 18.4 mph N/A   Clear
12:35 PM 60.8 °F - 46.4 °F 59% 30.07 in 10.0 mi SSW 16.1 mph - N/A   Clear
12:55 PM 60.8 °F - 46.4 °F 59% 30.06 in 10.0 mi SSW 13.8 mph - N/A   Clear
1:15 PM 62.6 °F - 46.4 °F 55% 30.06 in 10.0 mi SW 11.5 mph 19.6 mph N/A   Clear
1:35 PM 62.6 °F - 46.4 °F 55% 30.06 in 10.0 mi SSW 12.7 mph - N/A   Clear
1:55 PM 62.6 °F - 46.4 °F 55% 30.04 in 10.0 mi SSW 15.0 mph - N/A   Clear
2:15 PM 62.6 °F - 46.4 °F 55% 30.04 in 10.0 mi SSW 12.7 mph - N/A   Clear
2:35 PM 62.6 °F - 46.4 °F 55% 30.04 in 10.0 mi SSW 10.4 mph - N/A   Clear
2:55 PM 64.4 °F - 46.4 °F 52% 30.04 in 10.0 mi SSW 11.5 mph - N/A   Clear
3:15 PM 64.4 °F - 46.4 °F 52% 30.05 in 10.0 mi SW 11.5 mph - N/A   Clear
3:35 PM 62.6 °F - 46.4 °F 55% 30.05 in 10.0 mi SSW 12.7 mph - N/A   Clear
3:55 PM 62.6 °F - 46.4 °F 55% 30.05 in 10.0 mi SSW 8.1 mph - N/A   Clear
4:15 PM 60.8 °F - 46.4 °F 59% 30.06 in 10.0 mi SSW 6.9 mph - N/A   Clear
4:35 PM 57.2 °F - 46.4 °F 67% 30.05 in 5.0 mi South 4.6 mph - N/A   Haze
4:55 PM 57.2 °F - 46.4 °F 67% 30.05 in 7.0 mi SSW 4.6 mph - N/A   Clear
5:15 PM 59.0 °F - 46.4 °F 63% 30.06 in 10.0 mi SSW 3.5 mph - N/A   Clear
5:35 PM 57.2 °F - 46.4 °F 67% 30.07 in 10.0 mi Calm Calm - N/A   Clear
5:55 PM 55.4 °F - 44.6 °F 67% 30.07 in 10.0 mi South 3.5 mph - N/A   Clear
6:15 PM 53.6 °F - 44.6 °F 72% 30.07 in 10.0 mi SSE 4.6 mph - N/A   Clear
6:35 PM 51.8 °F - 44.6 °F 76% 30.07 in 10.0 mi South 4.6 mph - N/A   Clear
6:55 PM 50.0 °F - 42.8 °F 76% 30.07 in 10.0 mi South 3.5 mph - N/A   Clear
7:15 PM 51.8 °F - 42.8 °F 71% 30.07 in 10.0 mi South 5.8 mph - N/A   Clear
7:35 PM 50.0 °F - 42.8 °F 76% 30.07 in 10.0 mi South 3.5 mph - N/A   Clear
7:55 PM 50.0 °F - 42.8 °F 76% 30.07 in 10.0 mi South 4.6 mph - N/A   Clear
8:15 PM 48.2 °F - 42.8 °F 82% 30.06 in 10.0 mi South 5.8 mph - N/A   Clear
8:35 PM 48.2 °F - 42.8 °F 82% 30.07 in 10.0 mi Calm Calm - N/A   Clear
9:15 PM 50.0 °F - 42.8 °F 76% 30.07 in 10.0 mi SW 4.6 mph - N/A   Clear
9:35 PM 48.2 °F - 42.8 °F 82% 30.07 in 10.0 mi WSW 5.8 mph - N/A   Clear
9:55 PM 48.2 °F - 42.8 °F 82% 30.07 in 10.0 mi West 6.9 mph - N/A   Clear
10:15 PM 48.2 °F - 41.0 °F 76% 30.07 in 10.0 mi West 8.1 mph - N/A   Clear
10:35 PM 46.4 °F 42.9 °F 39.2 °F 76% 30.07 in 10.0 mi West 6.9 mph - N/A   Clear
10:55 PM 46.4 °F 43.5 °F 39.2 °F 76% 30.06 in 10.0 mi WNW 5.8 mph - N/A   Clear
11:15 PM 44.6 °F 40.2 °F 39.2 °F 81% 30.07 in 10.0 mi WNW 8.1 mph - N/A   Clear
11:35 PM 44.6 °F 40.7 °F 37.4 °F 76% 30.07 in 10.0 mi West 6.9 mph - N/A   Clear
11:55 PM 44.6 °F 40.7 °F 37.4 °F 76% 30.07 in 10.0 mi West 6.9 mph - N/A   Clear